Location: 相模原市立博物館
(35.5593°N, 139.3931°E)
Time: 12:32:44
(UTC+09:00)

Envisat - Pass Details

Date: 25 October 2021
Orbit: 764 x 766 km, 98.2° (Epoch: 30 November)

Event Time Altitude Azimuth Distance (km) Brightness Sun altitude
Rises 17:13:45 0° 208° (SSW) 3,217 6.9 -4.5°
Reaches altitude 10° 17:16:56 10° 230° (SW) 2,297 6.6 -5.2°
Maximum altitude 17:20:00 16° 267° (W) 1,913 6.6 -5.8°
Drops below altitude 10° 17:23:05 10° 305° (NW) 2,306 6.2 -6.4°
Sets 17:26:19 0° 327° (NNW) 3,237 6.6 -7.0°
